TimePST,TemperatureF,Dew PointF,Humidity,Sea Level PressureIn,VisibilityMPH,Wind Direction,Wind SpeedMPH,Gust SpeedMPH,PrecipitationIn,Events,Conditions,WindDirDegrees,DateUTC
12:53 AM,50.0,46.0,86,30.34,10.0,SSE,10.4,21.9,N/A,,Overcast,150,2014-01-13 08:53:00
1:53 AM,50.0,46.0,86,30.35,10.0,SSE,15.0,-,N/A,,Overcast,160,2014-01-13 09:53:00
2:27 AM,50.0,46.4,87,30.35,10.0,SSE,9.2,20.7,N/A,,Overcast,150,2014-01-13 10:27:00
2:49 AM,50.0,46.4,87,30.36,10.0,South,13.8,27.6,N/A,,Overcast,170,2014-01-13 10:49:00
2:53 AM,50.0,46.0,86,30.38,10.0,SSE,15.0,21.9,N/A,,Overcast,160,2014-01-13 10:53:00
3:17 AM,50.0,46.4,87,30.37,10.0,South,13.8,23.0,N/A,,Overcast,170,2014-01-13 11:17:00
3:53 AM,48.9,46.0,90,30.39,10.0,South,11.5,20.7,N/A,,Overcast,180,2014-01-13 11:53:00
4:36 AM,50.0,46.4,87,30.37,10.0,SSE,16.1,25.3,N/A,,Overcast,160,2014-01-13 12:36:00
4:53 AM,50.0,45.0,83,30.40,10.0,South,13.8,26.5,N/A,,Overcast,180,2014-01-13 12:53:00
5:53 AM,50.0,45.0,83,30.40,10.0,SSE,12.7,20.7,N/A,,Overcast,160,2014-01-13 13:53:00
6:53 AM,50.0,45.0,83,30.43,10.0,SSE,13.8,21.9,N/A,,Overcast,160,2014-01-13 14:53:00
7:53 AM,50.0,44.1,80,30.45,10.0,SSE,12.7,20.7,N/A,,Overcast,160,2014-01-13 15:53:00
8:53 AM,50.0,44.1,80,30.47,10.0,SSE,13.8,23.0,N/A,,Overcast,160,2014-01-13 16:53:00
9:53 AM,50.0,45.0,83,30.50,10.0,South,16.1,29.9,N/A,,Overcast,170,2014-01-13 17:53:00
10:53 AM,51.1,46.0,83,30.51,10.0,SSE,12.7,19.6,N/A,,Overcast,160,2014-01-13 18:53:00
11:53 AM,51.1,46.0,83,30.51,10.0,SSE,11.5,19.6,N/A,,Overcast,160,2014-01-13 19:53:00
12:53 PM,51.1,46.9,86,30.53,10.0,Variable,4.6,-,N/A,,Overcast,0,2014-01-13 20:53:00
1:53 PM,51.1,46.9,86,30.52,10.0,South,8.1,-,N/A,,Overcast,180,2014-01-13 21:53:00
2:53 PM,51.1,46.9,86,30.54,10.0,South,6.9,-,N/A,,Overcast,170,2014-01-13 22:53:00
3:53 PM,52.0,46.9,83,30.56,10.0,South,8.1,-,N/A,,Overcast,170,2014-01-13 23:53:00
4:53 PM,51.1,46.9,86,30.57,10.0,South,6.9,-,N/A,,Overcast,170,2014-01-14 00:53:00
5:53 PM,51.1,46.9,86,30.58,10.0,South,8.1,-,N/A,,Overcast,170,2014-01-14 01:53:00
6:53 PM,51.1,46.9,86,30.58,10.0,South,8.1,-,N/A,,Overcast,170,2014-01-14 02:53:00
7:53 PM,51.1,46.9,86,30.60,10.0,South,4.6,-,N/A,,Overcast,170,2014-01-14 03:53:00
8:53 PM,50.0,46.9,89,30.60,10.0,South,5.8,-,N/A,,Overcast,170,2014-01-14 04:53:00
9:53 PM,51.1,46.9,86,30.63,10.0,SSE,6.9,-,N/A,,Overcast,160,2014-01-14 05:53:00
10:53 PM,51.1,46.0,83,30.64,10.0,SSE,5.8,-,N/A,,Overcast,150,2014-01-14 06:53:00
11:53 PM,50.0,46.0,86,30.65,10.0,SE,5.8,-,N/A,,Overcast,130,2014-01-14 07:53:00